Cloud_Cover
11 4 4 10 16 0 0 0 0 0 0 0 0 0 0 0 0 0 0 0 0 0 0 0 1 3 0 0 1 4 5 0 0 0 2 75 76 18 7 55 77 100 2 6 0
99 9 5 22 10 1 0 0 0 0 0 0 0 1 0 0 0 0 0 0 0 0 3 10 5 3 5 5 5 5 1 0 0 0 0 0 0 5 95 47 97 100 100 78 22
61 100 79 6 14 12 5 4 0 0 0 0 0 0 0 5 5 5 0 0 24 0 1 1 3 5 4 5 5 9 11 0 0 0 0 0 5 8 26 93 22 57 100 48 97
9 5 41 26 5 7 12 10 38 33 5 0 0 0 4 23 100 93 12 5 15 0 0 5 5 5 5 5 37 60 5 5 4 0 0 0 63 99 10 22 70 71 100 100 99
85 17 26 39 91 96 100 100 100 100 81 39 62 100 100 94 40 4 0 0 0 0 3 5 6 70 73 81 86 99 10 100 23 95 4 0 0 7 6 3 100 48 100 88 56
97 20 7 7 40 65 87 55 83 98 100 100 100 94 81 23 0 2 0 5 5 5 10 90 98 94 95 68 92 84 87 48 30 87 21 5 4 1 0 73 96 100 99 86 18
100 100 98 71 84 96 99 48 26 68 8 32 34 42 100 54 57 73 41 61 5 18 66 100 100 100 100 81 10 92 88 96 22 99 25 29 5 2 0 93 58 100 96 81 100
100 100 93 100 100 100 100 100 99 89 76 15 10 89 97 77 100 60 67 10 35 30 13 49 94 100 100 95 47 63 96 100 4 100 8 91 25 0 10 68 66 100 88 51 98
95 100 100 81 69 93 100 100 100 100 100 100 84 61 63 28 17 9 5 10 50 57 94 72 69 100 100 100 98 81 58 91 20 99 70 100 47 0 40 4 96 100 100 99 100
100 100 100 76 82 88 90 80 30 38 52 100 100 59 5 6 5 5 10 71 74 60 100 96 91 100 100 99 82 34 98 98 98 16 88 12 3 1 74 4 100 100 100 100 100
42 99 7 56 20 16 5 5 4 5 38 51 36 5 4 1 0 4 35 42 66 90 99 100 96 74 96 100 100 94 100 92 6 62 100 67 4 98 71 77 100 100 100 100 100
36 8 5 5 5 5 5 5 5 5 5 5 5 5 5 5 5 41 5 22 81 52 92 100 84 93 100 100 100 100 100 4 5 100 100 82 43 100 91 90 100 100 100 84 100
100 6 5 5 5 5 5 5 5 5 1 0 1 2 8 5 5 18 35 18 86 79 19 61 73 85 100 100 100 100 94 97 100 100 100 94 100 79 77 100 100 100 98 100 100
68 28 5 5 1 1 4 3 5 0 3 5 5 17 10 5 20 99 87 32 100 44 71 55 94 34 100 100 100 100 98 100 100 100 100 100 76 37 94 100 100 100 100 100 77
100 7 20 20 5 5 10 5 6 5 11 5 5 5 9 26 89 66 90 98 100 100 78 53 92 99 100 100 100 97 100 100 100 100 100 100 73 100 100 100 100 94 97 99 5
37 7 52 6 32 13 12 13 54 93 19 30 5 7 5 5 19 100 95 96 100 100 100 90 12 99 100 100 100 100 100 100 100 100 100 100 100 100 100 100 100 100 26 99 16
90 61 67 46 56 35 31 53 94 53 48 44 6 12 7 87 79 86 100 100 97 92 77 100 54 91 100 89 98 100 100 100 100 100 100 100 100 100 100 100 69 100 13 38 11
14 60 63 100 95 19 84 100 95 51 50 5 5 5 5 17 33 86 81 94 20 100 97 100 99 100 100 90 76 100 100 100 100 100 100 100 100 100 74 99 12 12 78 6 98
47 100 100 100 100 100 100 100 99 100 100 90 72 100 100 100 94 89 37 96 42 36 100 100 100 100 100 100 64 96 100 100 100 100 100 100 100 100 100 100 100 42 100 99 100
100 100 100 100 100 100 100 100 100 100 100 100 100 100 100 100 73 92 95 12 80 61 86 99 100 100 100 100 100 100 59 81 100 100 100 100 100 99 100 98 100 100 100 100 87
100 100 100 100 100 100 100 100 100 100 100 100 100 100 100 95 100 100 100 96 92 63 92 86 100 100 100 100 100 100 100 78 79 100 100 70 81 8 100 67 97 100 100 100 100
100 100 100 100 100 100 100 100 100 100 100 100 100 100 100 100 100 100 100 99 91 100 83 100 100 100 100 100 100 100 100 100 68 99 94 100 100 100 87 48 6 100 100 100 100
100 100 100 100 100 100 100 100 92 98 100 100 100 100 100 100 100 100 100 100 100 100 100 90 98 95 100 100 100 100 100 100 100 100 100 94 100 100 95 100 100 100 100 100 100
100 100 100 100 100 100 100 100 100 100 100 100 100 100 100 100 100 100 100 100 100 100 100 100 89 93 98 100 100 100 100 100 100 83 100 100 100 98 98 100 100 100 100 100 100
100 100 99 100 100 100 100 100 100 100 100 100 100 100 100 100 100 100 100 100 100 100 100 100 100 100 96 94 100 100 100 100 100 100 93 100 100 74 100 100 100 100 100 100 100
100 100 100 100 100 100 100 100 100 100 100 100 100 100 100 100 100 100 100 35 76 88 100 90 94 92 86 100 94 100 100 100 100 100 98 100 100 100 100 93 100 100 100 100 100
100 100 100 100 100 100 100 100 100 100 100 100 100 100 100 100 100 77 85 38 78 94 100 100 100 100 97 99 100 87 100 100 100 100 63 72 100 88 53 98 100 100 100 100 100